Overview Statistics Trail Chart Weather Telemetry Raw packets
 

This is the latest recevied weather packets stored in our database for station/object OM6ACB-6. If no packets are shown the sender has not sent any weather packets the latest 10 day(s).

<< 22 23 24 25 26 27 28 >>
Time Temp. Humidity Pressure Rain* Wind** Luminosity Snow
1788322430 7.78° C 61% 1024 hPa 0 mm - - -
1788321830 7.78° C 62% 1024.1 hPa 0 mm - - -
1788321229 7.22° C 62% 1024.1 hPa 0 mm - - -
1788320629 7.22° C 62% 1024 hPa 0 mm - - -
1788320029 7.22° C 62% 1023.9 hPa 0 mm - - -
1788319428 7.22° C 61% 1023.9 hPa 0 mm - - -
1788318828 6.67° C 61% 1023.9 hPa 0 mm - - -
1788318228 7.78° C 62% 1024 hPa 0 mm - - -
1788317628 7.22° C 62% 1024 hPa 0 mm - - -
1788317027 7.22° C 61% 1024 hPa 0 mm - - -
1788316427 7.22° C 61% 1024 hPa 0 mm - - -
1788315827 7.22° C 61% 1023.9 hPa 0 mm - - -
1788315226 7.22° C 60% 1023.9 hPa 0 mm - - -
1788314626 7.78° C 60% 1024 hPa 0 mm - - -
1788314026 7.22° C 58% 1024 hPa 0 mm - - -
1788313426 7.78° C 58% 1024 hPa 0 mm - - -
1788312825 7.22° C 56% 1023.9 hPa 0 mm - - -
1788312225 7.22° C 53% 1023.8 hPa 0 mm - - -
1788311625 7.78° C 57% 1023.9 hPa 0 mm - - -
1788311029 7.78° C 57% 1023.9 hPa 0 mm - - -
1788310424 8.33° C 53% 1023.8 hPa 0 mm - - -
1788309824 8.33° C 56% 1024 hPa 0 mm - - -
1788309223 8.33° C 59% 1023.9 hPa 0 mm - - -
1788308623 8.33° C 59% 1023.8 hPa 0 mm - - -
1788308023 7.78° C 59% 1023.8 hPa 0 mm - - -

* Rain latest hour (hover to see other rain measurements)
** Current wind speed in m/s (hover to see current wind gust speed)